Regional Weather Roundup
Issued by NWS

Home | Current Version | Previous Version | Graphics & Text | Print | Product List | Glossary On
Versions: 1 2 3 4 5 6 7 8 9 10 11 12 13 14 15 16 17 18 19 20 21 22 23 24 25 26 27 28 29 30 31 32 33 34 35 36 37 38 39 40 41 42 43 44 45 46 47 48 49 50
812
ASUS43 KTOP 161259
RWRKS

WEATHER ROUNDUP FOR KANSAS
NATIONAL WEATHER SERVICE GOODLAND KS
700 AM CST TUE JAN 16 2018

NOTE:  "FAIR" INDICATES FEW OR NO CLOUDS BELOW 12,000 FEET WITH NO
SIGNIFICANT WEATHER AND/OR OBSTRUCTIONS TO VISIBILITY.

KSZ001>006-013>018-027>032-041>047-161400-
NORTHWEST KANSAS

CITY           SKY/WX    TMP DP  RH WIND       PRES   REMARKS
GOODLAND       CLEAR     -6 -10  83 NW7       30.61S
HAYS           CLEAR     -1  -8  72 NW9       30.75R
HILL CITY      CLEAR     -2  -9  72 NW7       30.74R
RUSSELL        CLEAR    N/A N/A N/A NW12      30.74R
$$

KSZ061>065-074>080-084>089-161400-
SOUTHWEST KANSAS

CITY           SKY/WX    TMP DP  RH WIND       PRES   REMARKS
DODGE CITY     CLEAR     -2  -8  76 NW9       30.70R
GARDEN CITY    CLOUDY    -2  -9  72 NW13      30.68R WCI -20
GREAT BEND     CLEAR     -4  -9  79 NW8       30.75R
LIBERAL        CLOUDY    -5 -11  75 NW8       30.70R
$$

KSZ066>073-081>083-090>101-161400-
SOUTHEAST KANSAS

CITY           SKY/WX    TMP DP  RH WIND       PRES   REMARKS
CHANUTE        CLEAR      1  -8  66 N9        30.76R
COFFEYVILLE    CLEAR      2  -4  76 CALM      30.81R
HUTCHINSON     CLEAR      0  -6  76 NW8       30.75R
MEDICINE LODGE   N/A      1  -5  75 NW8       30.78R
NEWTON         CLEAR     -1  -6  79 N15       30.74R WCI -21
PARSONS          N/A     -2  -6  83 NW3       30.79R
WICHITA INTL   CLEAR      4  -5  66 N14       30.77R WCI -14
WICHITA JABRA  CLEAR      1  -5  75 NW13      30.75R WCI -17
WICHITA MCCONL CLEAR      3  -6  67 N15       30.75R WCI -16
WINFIELD       CLEAR      2  -4  76 N9        30.79R
$$

KSZ007>012-019>026-033>040-048>060-102>105-161400-
NORTHEAST KANSAS

CITY           SKY/WX    TMP DP  RH WIND       PRES   REMARKS
CONCORDIA      CLEAR     -2  -8  76 NW9       30.75R
EMPORIA        CLEAR     -1  -8  72 NW13      30.73S WCI -19
LAWRENCE       CLEAR     -6 -11  79 W7        30.76R
MANHATTAN      CLOUDY     0  -7  72 NW5       30.78R
OLATHE IND     CLEAR     -5 -10  79 NW7       30.73R
OLATHE EXE     CLEAR     -4  -9  79 NW12      30.71R WCI -22
SALINA         CLEAR      2  -6  69 NW12      30.78R WCI -15
TOPEKA BILLARD CLEAR     -2  -8  76 W7        30.77R
TOPEKA FORBES  CLEAR     -1  -9  68 NW12      30.74R WCI -18
$$




USA.gov is the U.S. government's official web portal to all federal, state and local government web resources and services.